This demonstration page uses our WeatherBlox Daily Observations layout. Learn more.

Left ArrowRight Arrow

39.12711, -84.51439

Hourly Observations for March 26, 2021

Temp ( °F °C ) Dew Point ( °F °C ) Humidity (%) Winds ( mph kmh ) Pressure ( in mb ) Visibility ( mi km ) Precip ( " mm )
12:06 am 00:06 Cloudy with Light Rain 65 18.3 59 15 81 81 S 20 31 29.52 1000 10 16.0934 0.001 0.001
12:36 am 00:36 Cloudy 66 18.9 59 15 78 78 SSW 29 46 29.53 1000 10 16.0934 0.01 0.254
12:53 am 00:53 Cloudy 66 18.9 59 15 78 78 SSW 28 44 29.55 1001 10 16.0934 0.01 0.254
1:24 am 01:24 Cloudy 65 18.3 57 13.9 76 76 SW 18 30 29.57 1001 10 16.0934 0 0
1:31 am 01:31 Cloudy 66 18.9 57 13.9 73 73 SW 26 43 29.57 1001 10 16.0934 0 0
1:53 am 01:53 Mostly Cloudy 65 18.3 54 12.2 68 68 SW 25 41 29.58 1002 10 16.0934 0 0
2:53 am 02:53 Mostly Clear 62 16.7 51 10.6 67 67 SW 24 39 29.62 1003 10 16.0934 0 0
3:53 am 03:53 Mostly Cloudy 59 15 46 7.8 62 62 WSW 29 46 29.68 1005 10 16.0934 0 0
4:53 am 04:53 Cloudy 58 14.4 47 8.3 67 67 WSW 24 39 29.75 1007 10 16.0934 0 0
5:53 am 05:53 Cloudy 56 13.3 44 6.7 65 65 W 16 26 29.82 1010 10 16.0934 0 0
6:53 am 06:53 Cloudy 56 13.3 46 7.8 70 70 WSW 12 19 29.87 1011 10 16.0934 0 0
7:53 am 07:53 Cloudy 55 12.8 46 7.8 72 72 WNW 10 17 29.91 1013 10 16.0934 0 0
8:53 am 08:53 Cloudy 55 12.8 47 8.3 74 74 W 8 13 29.96 1015 10 16.0934 0 0
9:53 am 09:53 Cloudy 55 12.8 47 8.3 74 74 WNW 12 19 30.01 1016 10 16.0934 0 0
10:53 am 10:53 Cloudy 56 13.3 47 8.3 72 72 W 8 13 30.04 1017 10 16.0934 0 0
11:53 am 11:53 Cloudy 56 13.3 47 8.3 72 72 W 14 22 30.06 1018 10 16.0934 0 0
12:53 pm 12:53 Cloudy 56 13.3 47 8.3 72 72 WSW 9 15 30.08 1019 10 16.0934 0 0
1:53 pm 13:53 Cloudy 57 13.9 47 8.3 69 69 W 9 15 30.09 1019 10 16.0934 0 0
2:53 pm 14:53 Cloudy 57 13.9 47 8.3 69 69 W 9 15 30.09 1019 10 16.0934 0 0
3:53 pm 15:53 Cloudy 57 13.9 47 8.3 69 69 W 8 13 30.09 1019 10 16.0934 0 0
4:53 pm 16:53 Cloudy 58 14.4 47 8.3 67 67 SW 8 13 30.08 1019 10 16.0934 0 0
5:53 pm 17:53 Cloudy 58 14.4 47 8.3 67 67 W 9 15 30.09 1019 10 16.0934 0 0
6:53 pm 18:53 Cloudy 57 13.9 46 7.8 67 67 W 8 13 30.11 1020 10 16.0934 0 0
7:53 pm 19:53 Cloudy 56 13.3 45 7.2 67 67 W 6 9 30.12 1020 10 16.0934 0 0
8:53 pm 20:53 Clear 50 10 45 7.2 83 83 Calm 30.13 1020 10 16.0934 0 0
9:53 pm 21:53 Clear 46 7.8 43 6.1 89 89 Calm 30.14 1021 10 16.0934 0 0
10:53 pm 22:53 Clear 44 6.7 41 5 89 89 Calm 30.14 1021 7 11.26538 0 0
11:07 pm 23:07 Clear with Mist and Fog 42 5.6 41 5 96 96 Calm 30.16 1021 1.75 2.816345 0 0
11:19 pm 23:19 Clear with Mist and Fog 44 6.7 42 5.6 93 93 Calm 30.16 1021 3 4.82802 0 0
11:53 pm 23:53 Clear with Mist and Fog 43 6.1 41 5 93 93 Calm 30.14 1021 5 8.0467 0 0

Powered by AerisWeather